GFSSGP_925_rhum_336.txt.gz
RH
83 76 73 69 57 43 60 70 67 68 52 43 40 40 46 45 48 62 49 59 62 65 80 82 85 88 83 88 89 90 88 90 88 89 88 90 95 93 90 89 91 95 93 83 87 84 86 80 78
67 72 65 54 65 41 52 54 60 62 45 38 37 37 41 53 41 48 48 63 61 64 78 84 75 81 85 84 87 90 95 96 86 85 84 83 93 88 92 92 95 97 96 96 92 93 92 84 82
70 65 52 39 33 36 43 38 43 46 37 36 39 37 40 51 44 48 56 62 60 66 80 82 77 73 73 75 83 90 91 97 85 85 82 86 90 85 86 93 96 96 97 94 93 92 89 88 84
62 62 52 34 38 34 35 35 37 37 34 33 34 47 48 57 49 52 59 59 59 63 73 82 81 78 77 79 84 93 93 94 85 81 80 84 86 92 92 95 94 95 92 80 90 92 90 71 71
56 42 29 31 38 33 30 30 31 36 37 36 32 45 55 62 59 59 59 57 60 62 70 82 86 80 76 81 94 93 96 93 82 84 84 84 93 95 95 92 94 92 95 91 87 91 81 72 68
48 33 28 34 38 34 31 29 30 34 36 37 36 42 56 62 59 61 56 54 64 62 69 87 84 94 95 91 86 95 96 82 84 85 91 95 93 93 93 92 94 94 90 91 89 82 74 74 67
40 26 31 31 38 37 33 28 31 33 34 34 33 41 52 53 62 64 59 59 64 64 68 89 89 94 99 88 83 87 83 80 81 88 84 97 92 84 89 91 92 92 92 92 85 82 76 68 64
35 27 32 31 31 38 31 30 30 30 35 30 29 39 47 54 64 64 61 65 64 67 68 86 86 92 92 93 85 83 80 84 87 93 84 82 96 94 89 63 93 92 94 86 69 69 66 63 60
34 27 29 29 28 36 30 33 29 28 32 36 34 34 45 58 61 61 62 63 65 73 70 85 92 90 91 87 88 87 97 96 95 90 87 83 82 72 72 79 83 95 84 82 65 60 56 54 64
31 24 26 23 23 28 29 30 32 33 34 40 46 48 54 56 57 56 56 60 62 68 78 91 91 88 81 72 90 92 89 77 88 88 85 90 63 62 57 70 81 69 61 55 52 50 51 57 47
28 26 22 22 22 23 27 30 28 30 34 31 41 45 46 47 48 49 60 61 61 64 75 91 87 96 87 96 81 93 84 98 90 85 95 70 66 61 53 58 59 63 58 54 55 54 48 50 50
29 24 23 23 25 26 28 27 29 31 27 26 33 38 42 41 41 44 51 61 65 66 74 89 98 98 97 92 62 81 78 83 95 91 82 70 60 59 58 51 55 56 47 50 50 51 55 58 56
29 25 25 24 24 25 27 28 27 31 26 28 34 39 39 38 42 45 51 62 71 69 74 89 97 100 82 78 82 76 67 70 76 93 74 65 61 61 58 58 56 60 56 53 54 56 56 56 53
25 25 25 25 25 26 28 28 24 30 28 32 36 38 37 39 42 48 52 63 76 78 71 89 99 95 88 81 86 78 75 64 71 82 79 82 65 69 63 66 61 62 59 58 60 62 61 59 54
24 30 28 27 27 30 26 33 27 26 28 33 34 36 37 40 44 46 48 55 73 71 75 86 100 92 91 95 88 86 84 84 61 64 84 82 74 80 81 67 65 63 64 68 60 61 58 55 53
28 27 35 31 29 29 28 33 28 26 31 33 33 36 39 42 46 48 52 53 64 75 79 91 99 96 89 94 89 87 72 76 61 70 81 82 76 77 73 63 63 70 65 58 58 60 58 55 56
30 35 33 35 29 32 30 32 27 26 29 31 33 37 38 43 46 50 54 57 61 75 89 94 97 99 95 90 85 84 81 79 65 64 80 75 76 70 72 62 64 70 61 60 61 60 59 58 57
38 37 42 36 31 31 32 32 28 27 27 29 30 33 37 39 44 49 51 56 60 72 91 95 99 100 99 95 91 90 79 80 68 72 65 75 75 69 69 61 70 68 59 61 64 75 66 66 59
29 36 30 31 38 36 36 34 36 27 27 28 29 30 34 37 49 47 49 55 60 70 89 90 93 98 98 96 88 90 66 76 73 78 74 74 83 75 74 60 62 64 60 69 79 71 66 73 59
26 31 36 46 50 40 46 41 31 31 29 25 26 31 40 36 44 46 48 52 55 65 78 92 87 98 94 94 88 76 75 71 77 71 78 75 76 80 78 74 63 60 60 66 82 81 75 62 68
25 29 30 34 41 35 37 44 35 27 29 29 24 27 40 36 41 42 46 49 54 62 67 73 88 89 84 83 81 83 74 68 72 71 73 79 76 74 74 75 74 72 67 66 79 81 81 77 74
29 28 30 40 42 49 35 46 28 26 29 30 27 28 29 36 37 40 42 46 49 54 61 69 76 86 87 88 78 73 65 60 55 57 67 63 72 71 70 71 73 72 78 83 82 78 82 82 62
30 28 30 34 39 38 37 41 27 24 28 28 28 26 25 29 32 37 39 42 46 53 56 68 80 76 74 80 73 77 73 66 77 67 67 66 71 69 58 68 73 83 84 83 92 85 82 72 70
30 32 36 36 36 46 33 34 26 26 25 24 22 26 26 25 30 34 39 43 46 53 56 61 81 81 80 81 81 76 74 77 73 67 61 64 68 68 66 76 91 95 92 87 84 86 83 83 81
30 26 32 38 48 43 31 35 28 23 24 21 22 24 24 26 29 33 36 42 46 52 54 57 70 76 79 78 78 78 77 71 75 73 74 72 78 83 89 94 86 88 90 88 89 83 86 96 94
27 24 31 38 43 30 32 32 24 21 22 21 18 19 22 26 32 29 35 40 45 52 54 55 65 77 81 87 80 83 80 70 75 68 71 77 88 65 65 64 87 91 91 89 94 96 94 98 97
29 30 25 24 23 32 26 24 20 20 22 22 19 18 23 26 30 28 35 40 44 50 55 56 61 69 80 70 69 75 79 70 66 69 68 70 70 69 68 92 99 97 97 98 98 98 95 92 83
24 22 27 27 37 44 27 28 23 22 23 23 21 21 22 26 29 28 33 38 44 47 53 56 60 64 67 76 72 67 59 58 51 53 57 85 99 98 99 99 99 99 99 99 89 79 88 83 73
28 26 25 22 24 34 31 28 21 24 24 23 21 20 23 27 29 30 32 34 40 44 50 54 57 68 68 64 74 70 56 64 73 77 96 100 98 98 94 97 98 99 97 93 91 88 85 84 81
13 18 21 25 36 26 28 27 17 21 20 20 18 20 23 27 29 30 32 33 38 44 46 51 53 60 61 64 72 73 75 76 78 98 98 99 95 98 98 100 99 95 93 91 85 78 79 75 73

GFSSGP_925_rhum_339.txt.gz
RH
78 83 84 68 76 43 50 48 42 41 42 32 29 32 36 36 50 72 47 59 64 67 82 92 84 87 89 88 88 87 87 86 83 83 84 82 91 91 87 84 88 92 95 96 96 96 95 92 89
56 56 55 58 61 50 47 46 47 41 37 30 26 28 34 43 37 43 50 55 67 66 75 82 81 85 89 89 88 88 94 92 85 85 83 91 90 84 88 92 96 96 96 97 87 90 90 85 79
69 55 64 72 30 43 46 47 40 34 29 28 31 28 39 42 40 48 52 55 66 68 82 90 80 84 90 91 91 88 89 92 90 86 94 94 92 92 92 94 96 96 96 95 92 91 85 85 71
55 53 53 40 35 28 28 30 31 30 27 25 27 41 42 48 45 45 53 59 65 67 80 84 79 86 78 84 92 92 92 94 91 83 86 91 90 88 95 95 95 96 93 89 94 86 86 73 70
43 38 34 35 28 24 24 24 25 28 28 27 26 42 54 48 40 41 58 60 68 64 76 88 80 78 76 83 92 92 92 92 82 77 82 86 93 94 93 92 95 89 94 88 86 87 88 81 74
54 30 31 30 28 24 24 22 23 26 26 26 30 37 47 50 48 40 56 58 65 66 73 91 80 85 83 88 94 94 94 83 78 78 79 85 94 94 91 92 92 92 87 88 88 84 89 85 69
65 26 25 24 26 27 26 21 23 26 26 26 24 37 41 54 55 47 53 55 64 67 76 96 92 91 92 94 92 93 90 86 84 81 82 84 93 94 91 96 91 89 92 92 76 70 69 65 60
23 23 27 29 25 29 24 23 21 22 26 22 22 34 40 52 55 53 48 61 64 74 77 98 90 84 98 95 90 84 89 85 93 93 94 81 75 85 93 66 90 91 92 89 74 62 58 57 56
22 36 26 25 25 27 22 26 23 20 24 25 26 28 34 50 53 53 53 61 65 76 79 84 93 87 90 90 88 85 85 91 90 85 75 73 64 79 65 80 62 88 74 76 65 55 51 50 59
29 25 21 18 20 23 22 24 25 25 28 31 34 34 37 43 51 52 55 51 63 77 85 81 90 87 87 83 79 78 95 62 70 71 78 73 66 57 56 69 53 55 52 48 46 50 50 53 42
34 23 17 18 18 18 21 23 22 23 27 27 33 35 34 35 37 38 50 53 54 64 79 78 88 88 86 74 88 91 80 83 90 93 84 67 59 54 47 54 60 70 57 62 63 59 50 43 44
33 17 17 17 20 19 21 21 22 26 23 23 26 28 29 29 28 32 38 50 48 71 76 77 79 80 79 92 91 81 85 94 87 75 79 57 50 45 45 42 45 49 40 42 43 40 46 48 47
23 20 18 18 19 20 20 21 23 24 20 22 25 27 27 27 29 32 36 39 40 68 73 87 85 87 90 83 62 70 75 87 95 72 74 50 47 48 47 46 44 46 44 41 42 43 46 52 57
20 19 19 19 20 20 21 21 21 22 21 24 26 27 26 27 30 36 40 45 46 59 72 90 92 92 88 73 57 75 70 63 76 83 67 67 57 50 46 48 49 46 44 48 46 51 58 52 51
19 23 20 20 21 22 20 25 24 21 22 25 26 26 27 28 32 35 36 45 52 52 76 89 94 88 85 87 78 83 72 73 61 77 73 72 62 64 61 54 50 47 49 58 52 56 54 48 49
24 24 34 25 22 23 30 69 22 20 22 25 25 26 27 30 32 36 39 40 52 61 76 84 96 87 83 84 90 88 66 71 72 72 77 71 69 73 62 49 48 57 59 46 55 51 48 49 47
25 71 69 76 23 24 26 81 34 20 22 24 24 26 28 33 34 37 42 44 49 59 68 85 92 92 94 91 95 79 72 75 81 84 63 85 71 66 71 50 51 64 52 47 51 50 55 56 51
74 32 34 32 55 25 26 30 43 22 24 25 27 29 30 30 34 37 40 44 48 64 74 76 96 99 95 99 96 91 82 74 84 69 72 72 72 67 69 54 64 65 51 52 58 70 62 65 57
23 25 32 30 27 28 31 31 39 75 53 27 25 29 30 30 34 36 39 44 49 60 81 85 98 99 94 90 85 87 79 72 81 60 64 61 78 75 72 61 56 57 53 60 66 63 63 63 61
22 29 45 24 32 32 28 28 26 35 29 29 25 29 26 28 34 35 38 42 46 55 68 83 89 98 95 93 89 78 70 59 65 71 66 64 65 76 74 75 64 59 59 59 65 81 80 68 65
35 34 51 26 30 28 29 34 29 22 22 23 27 23 22 25 31 33 36 40 43 54 61 74 85 90 92 94 84 76 68 68 66 69 77 70 76 71 75 75 74 74 70 57 77 83 81 83 71
29 29 21 26 31 44 30 40 37 28 23 23 21 28 22 26 29 32 34 38 40 48 54 68 77 83 85 87 92 88 76 64 65 63 72 64 75 73 69 65 70 73 71 83 84 86 85 79 62
30 45 23 22 27 29 34 42 46 26 25 22 22 21 21 23 26 30 31 37 39 43 48 59 74 77 72 81 84 80 78 72 60 53 68 71 68 76 68 68 73 70 78 86 89 82 80 74 69
22 22 22 23 29 46 67 32 46 47 19 19 19 19 19 22 24 26 30 35 39 42 45 56 64 72 69 73 81 82 78 74 67 64 57 59 64 60 68 70 75 83 88 88 85 79 77 78 85
22 22 34 58 84 94 68 24 26 17 17 15 17 19 18 22 23 26 29 32 37 42 44 56 67 68 72 67 68 68 74 78 69 69 55 56 59 56 61 81 86 81 88 84 83 83 89 91 90
21 20 62 56 34 65 57 29 25 17 16 15 15 17 18 20 21 26 29 33 36 42 45 49 63 66 70 74 73 73 73 67 59 69 61 71 78 76 87 84 90 88 86 85 91 95 89 86 85
21 22 20 29 17 26 60 48 21 17 17 16 15 16 18 20 21 25 28 33 37 42 44 46 59 63 73 82 80 77 72 61 68 79 77 67 87 87 94 90 96 89 94 97 91 83 82 76 66
16 20 26 33 38 49 47 48 86 22 20 17 16 16 17 19 22 24 27 31 36 40 43 45 54 59 81 66 70 72 68 72 76 65 62 68 85 86 89 94 93 97 97 90 75 64 82 75 67
19 21 18 25 20 30 26 57 61 26 18 18 15 15 16 18 22 23 27 30 33 36 40 44 49 51 70 68 62 66 67 61 66 59 77 91 86 88 92 98 99 94 88 85 86 82 78 77 74
12 14 13 19 24 51 37 30 29 15 16 16 15 16 15 19 22 22 26 29 32 35 37 41 47 48 50 63 63 61 55 57 65 74 87 91 95 97 98 98 92 86 84 83 79 72 73 68 66

GFSSGP_925_rhum_342.txt.gz
RH
58 72 85 75 56 37 50 50 40 49 39 26 26 32 42 44 51 86 60 58 67 74 88 80 87 90 93 91 91 90 88 88 86 85 84 74 79 69 73 81 87 91 94 96 96 97 93 86 70
64 64 72 68 64 46 51 36 55 43 30 26 28 36 49 58 48 56 59 59 66 73 82 83 85 88 93 90 87 88 90 94 84 86 82 84 82 78 84 92 93 91 90 93 94 91 90 87 70
66 52 88 85 44 45 48 43 40 30 26 25 36 38 41 52 44 53 59 59 68 71 80 90 83 87 87 89 89 87 86 90 83 83 87 83 80 88 93 97 97 97 96 95 92 87 81 82 66
55 53 65 61 33 37 37 36 30 26 23 24 32 46 41 42 48 54 59 59 68 75 87 87 79 88 92 93 92 92 93 86 82 84 90 86 89 94 95 96 95 95 92 93 92 82 72 72 69
50 71 61 26 28 25 30 29 24 27 26 39 39 50 49 42 50 52 57 65 68 78 86 89 80 83 84 86 93 88 92 86 79 74 85 90 93 94 93 93 94 90 94 86 85 73 74 74 72
68 70 49 29 24 23 21 20 22 24 24 26 37 52 51 39 52 50 57 62 67 79 93 80 82 83 86 87 94 88 84 81 80 83 95 95 96 92 91 92 92 88 85 87 69 64 66 65 61
86 58 27 27 25 24 22 18 22 23 24 25 28 57 53 47 53 54 56 61 69 79 94 85 77 77 91 90 90 85 87 86 79 78 81 83 85 93 93 95 88 88 89 81 66 62 58 56 57
60 30 27 24 25 26 20 19 19 22 25 19 22 44 62 54 49 56 60 64 78 90 99 87 80 84 91 92 89 83 83 79 83 81 74 86 83 87 86 61 79 89 80 69 69 60 55 55 55
58 34 30 27 24 24 20 23 20 18 23 28 31 43 46 50 46 64 64 71 84 87 94 92 94 89 88 80 74 77 77 86 76 80 69 68 78 79 68 79 58 58 56 56 52 50 49 50 52
56 43 28 19 18 20 20 22 22 23 26 31 33 36 46 50 46 46 60 71 78 83 90 94 98 96 91 84 79 78 84 75 75 76 64 76 72 58 71 61 48 48 48 46 49 52 52 52 56
36 21 15 18 17 17 20 20 19 22 27 28 33 31 34 51 48 50 56 62 67 82 85 91 96 91 83 80 66 65 82 77 82 83 79 72 63 55 53 56 46 50 50 53 60 50 56 56 47
28 15 15 16 16 17 20 18 22 24 24 22 25 25 29 34 46 49 47 62 67 75 86 85 90 87 84 71 64 68 85 79 82 73 72 59 56 45 47 52 57 53 58 53 44 42 44 52 54
25 20 16 16 17 18 18 20 21 22 21 22 23 23 26 28 36 38 37 48 54 67 78 85 83 82 87 89 78 81 78 74 68 71 64 66 60 50 43 47 46 43 46 48 50 53 51 50 60
29 21 17 17 18 18 19 20 20 20 20 23 23 24 24 26 29 30 33 55 59 61 71 82 80 79 88 91 79 75 82 86 66 61 66 72 52 47 57 48 51 51 51 40 54 51 54 54 56
22 27 19 22 20 20 19 23 26 20 20 22 24 26 27 28 27 31 34 38 61 62 73 80 83 84 88 83 71 74 70 65 78 72 70 65 64 56 58 55 48 61 46 53 53 50 54 53 49
28 51 60 44 45 24 23 39 32 20 21 23 25 28 27 35 34 34 36 40 46 68 79 82 83 83 85 84 80 86 64 73 62 64 68 68 69 60 57 60 54 51 50 56 49 56 56 57 56
41 60 64 73 46 50 37 43 29 29 26 23 25 25 26 31 34 36 37 43 48 72 78 82 85 76 82 85 87 81 74 72 72 62 64 73 67 64 58 60 59 59 55 54 57 62 62 64 62
68 55 54 60 61 50 42 39 33 32 41 46 41 24 28 30 36 39 37 42 46 61 80 82 87 80 85 92 88 78 69 74 78 65 66 70 74 65 66 63 60 60 58 54 57 61 68 66 67
32 36 35 39 33 34 31 39 33 34 38 38 49 43 29 31 34 35 41 42 52 56 73 84 90 90 90 89 90 88 83 76 78 74 71 71 74 77 74 69 64 59 56 59 58 68 74 73 70
26 33 36 26 36 32 30 33 44 43 30 28 34 58 32 32 41 35 41 42 49 64 71 83 92 93 93 90 86 84 79 78 77 82 60 63 58 71 78 71 70 68 68 67 66 74 83 71 68
28 29 35 32 27 27 27 30 47 48 33 27 29 37 40 41 34 34 38 42 47 58 74 78 88 95 94 93 86 81 75 73 66 68 64 58 56 58 76 75 75 74 73 72 70 74 81 81 66
33 25 26 30 27 34 25 39 32 38 45 33 31 27 46 56 32 32 36 40 44 53 61 74 84 89 92 91 88 83 75 71 66 69 69 62 55 58 74 72 69 72 70 76 78 82 82 80 77
27 24 28 22 29 33 74 68 64 51 31 23 27 26 29 28 28 31 37 39 43 49 56 68 79 86 88 88 86 88 74 72 70 61 68 66 67 71 74 72 69 69 76 81 81 83 79 76 82
28 42 41 43 53 58 70 74 76 57 51 39 20 24 37 60 24 45 41 39 42 44 49 64 76 80 82 82 80 81 78 74 70 68 63 70 63 66 71 64 69 74 82 80 85 83 84 79 87
24 42 58 75 60 77 49 54 55 44 29 32 21 28 30 35 24 38 36 50 42 42 46 56 74 77 78 78 76 74 81 77 69 67 62 60 58 62 62 68 77 84 83 82 85 77 82 88 84
23 18 31 52 53 58 62 68 74 55 27 12 15 17 24 24 22 27 37 42 42 42 46 54 63 69 71 73 70 75 72 74 73 68 67 57 62 68 74 81 84 88 90 83 80 86 84 80 76
18 29 26 30 28 32 66 53 59 40 25 13 14 16 21 21 24 27 34 36 38 41 49 56 63 66 74 75 76 77 73 71 62 67 75 76 77 77 66 84 87 85 84 79 87 78 78 70 66
13 21 46 34 40 44 61 77 87 60 32 15 16 17 18 19 23 26 27 29 35 38 43 53 64 63 69 68 75 76 75 68 67 80 75 64 67 78 78 89 94 88 89 84 75 77 77 74 69
16 22 23 19 23 31 50 87 44 47 33 24 15 15 16 20 24 28 29 29 33 37 41 47 57 61 73 78 71 69 70 69 81 76 58 73 78 83 87 92 92 86 82 83 72 76 76 72 68
10 13 13 17 19 30 33 40 69 48 27 23 13 14 17 21 23 28 30 30 32 36 39 42 48 62 64 58 60 70 66 71 65 58 78 78 88 87 91 90 84 82 80 79 75 72 69 66 67

GFSSGP_925_rhum_345.txt.gz
RH
59 68 88 87 81 64 67 72 73 42 41 44 45 54 64 66 67 94 74 81 83 84 83 83 90 91 91 89 86 84 85 85 67 69 65 76 73 74 77 81 82 84 94 96 91 82 75 64 62
56 77 77 85 66 72 68 56 50 42 35 40 44 50 64 78 61 76 74 78 77 86 82 85 92 89 91 92 86 82 89 94 84 72 67 63 80 78 90 95 83 83 84 92 88 82 75 66 59
62 71 85 86 64 64 61 58 52 34 29 37 44 45 53 74 57 65 68 76 84 83 81 81 90 89 87 91 88 87 88 94 93 86 91 90 92 94 96 88 92 89 92 86 80 69 70 64 55
70 68 75 83 50 43 46 49 45 28 37 40 43 60 53 55 57 66 71 76 83 86 84 84 85 84 86 91 86 87 86 91 90 86 90 89 94 95 96 96 97 96 81 81 72 68 60 64 65
73 91 86 52 45 36 32 31 27 41 42 44 45 58 61 58 62 66 70 78 82 83 80 85 86 86 89 91 90 89 87 88 74 81 92 95 95 95 94 96 91 93 78 66 66 66 64 60 57
89 97 73 43 32 33 31 25 24 35 43 47 52 58 64 56 62 70 73 80 85 94 88 87 90 86 85 90 92 89 89 91 92 87 92 80 76 79 92 73 91 73 72 58 59 61 59 56 52
73 79 57 32 30 27 24 22 25 26 46 48 43 66 70 65 59 69 73 82 89 88 84 85 85 80 84 88 83 86 85 88 84 93 89 78 66 81 76 75 67 68 63 56 54 54 55 56 57
76 77 38 31 29 31 21 21 22 24 43 40 44 62 84 68 66 76 80 88 89 82 82 76 79 80 76 77 80 86 84 80 84 80 65 72 72 77 71 47 58 60 53 51 51 52 54 54 55
72 79 38 30 30 28 22 24 21 28 45 48 46 52 57 64 69 79 86 98 93 92 81 77 83 86 78 70 77 83 76 75 70 61 66 67 68 57 64 68 53 51 52 51 50 49 50 50 51
71 55 31 21 23 24 22 23 24 33 48 57 55 50 59 68 70 76 88 95 98 96 95 87 88 86 76 77 87 82 82 68 68 66 65 76 76 64 63 62 52 49 50 49 51 52 53 54 57
41 40 22 20 18 20 22 23 21 32 42 59 62 55 49 64 64 73 82 89 94 86 98 99 91 88 78 72 72 81 76 79 81 76 74 72 78 62 62 55 46 48 48 53 52 59 59 58 61
41 19 17 18 18 20 20 21 25 30 33 32 47 49 50 52 53 64 75 83 88 87 91 94 91 87 79 72 62 72 72 85 77 65 71 76 68 68 58 53 46 54 57 60 60 56 54 56 53
36 28 17 18 18 20 18 24 26 28 27 27 33 49 53 51 51 58 66 77 85 92 91 84 88 87 81 73 62 62 76 73 74 61 71 64 59 56 48 51 53 55 61 54 54 53 49 49 53
28 29 25 32 34 18 22 24 24 27 26 27 27 32 47 49 51 51 65 73 81 88 91 84 85 83 76 66 60 64 74 62 69 71 72 67 62 53 46 49 50 51 52 57 55 52 55 56 56
28 31 28 38 36 31 35 33 29 26 26 27 28 30 33 49 49 47 58 69 71 84 85 83 86 83 83 66 66 84 87 75 66 66 72 68 66 49 58 55 56 55 46 50 57 62 58 55 56
41 53 54 37 38 37 39 42 32 30 27 30 30 30 34 37 35 50 58 59 67 80 87 83 83 86 86 77 81 74 70 70 66 67 70 67 67 54 57 60 63 55 42 58 62 57 55 62 63
52 66 60 52 37 42 43 52 36 34 36 37 33 38 45 43 41 41 53 61 67 74 84 87 83 84 81 84 74 72 70 70 62 64 68 65 62 67 55 62 66 54 54 60 54 52 62 72 71
63 58 48 56 43 43 43 51 36 32 42 44 40 46 41 43 45 44 50 64 71 74 80 84 83 83 87 85 82 74 73 66 74 62 56 63 65 67 68 63 70 59 61 59 54 61 69 71 74
38 48 54 48 39 43 45 48 43 36 41 42 48 56 60 46 45 42 48 63 74 81 82 84 83 84 84 86 88 86 79 71 76 71 59 52 66 72 70 68 69 67 65 64 62 72 69 68 72
42 46 55 44 36 46 48 46 42 38 50 42 41 54 58 54 46 53 50 61 72 74 79 84 82 83 80 87 87 86 77 79 75 74 60 53 59 71 72 77 72 72 70 66 76 74 76 75 75
30 41 48 46 38 61 72 80 56 61 62 46 40 50 41 51 69 57 51 57 67 79 77 82 84 87 86 89 84 80 81 77 80 80 77 60 64 57 63 77 76 70 77 72 72 77 86 83 79
37 32 33 33 39 53 66 89 79 81 80 62 38 50 52 60 57 69 75 58 71 70 76 79 82 88 88 90 88 82 80 85 79 68 61 56 53 47 47 74 76 70 74 69 79 81 82 84 81
33 25 30 42 46 51 64 66 79 83 77 61 54 34 48 45 45 69 56 60 69 74 73 78 82 89 90 89 84 86 80 78 74 66 68 70 60 57 54 57 67 65 70 77 83 85 83 81 83
26 31 49 66 71 73 75 67 68 64 54 50 48 38 43 40 40 68 56 52 59 69 75 77 85 87 88 90 89 82 78 75 73 72 72 69 69 68 65 63 68 73 74 83 84 84 81 82 84
30 41 66 75 84 83 74 59 62 54 52 52 49 51 38 37 54 82 60 52 56 62 71 78 84 89 88 86 86 80 76 69 71 69 69 65 66 62 63 67 67 74 85 82 84 80 81 81 77
42 58 59 64 66 71 65 72 62 49 46 50 40 43 38 39 55 61 64 56 59 58 70 77 74 83 86 80 80 76 76 74 69 66 70 66 68 63 64 66 79 82 81 80 81 84 83 77 81
43 47 32 35 39 57 74 69 57 48 52 49 43 41 39 38 47 58 60 51 52 54 67 75 75 80 77 69 74 75 74 77 69 68 70 67 63 68 77 80 82 80 83 84 87 77 74 77 72
23 20 40 70 74 77 91 84 78 52 44 39 54 32 34 33 39 46 48 48 53 54 58 64 72 73 74 70 72 76 73 74 75 71 68 65 66 73 74 81 80 88 89 82 77 74 74 71 64
22 36 36 74 77 76 78 84 64 50 45 44 50 41 30 36 41 43 45 44 48 56 60 63 64 72 73 72 68 74 72 73 65 59 64 66 73 76 78 87 91 85 80 76 75 75 72 68 66
15 24 34 41 39 39 46 74 46 52 43 46 38 40 31 31 35 39 40 41 44 54 61 66 67 67 72 69 70 65 70 76 71 64 61 79 70 86 88 88 83 79 75 78 75 70 68 68 67